This demonstration page uses our WeatherBlox Daily Observations layout. Learn more.

Left ArrowRight Arrow

44.8408, -93.29828

Hourly Observations for July 7, 2019

Temp ( °F °C ) Dew Point ( °F °C ) Humidity (%) Winds ( mph kmh ) Pressure ( in mb ) Visibility ( mi km ) Precip ( " mm )
12:53 am 00:53 Mostly Cloudy 72 22.2 59 15 64 64 NE 3 6 30.11 1020 10 16 0.00 0.00
1:53 am 01:53 Clear 71 21.7 58 14.4 63 63 E 6 9 30.10 1019 10 16 0.00 0.00
2:53 am 02:53 Clear 69 20.6 56 13.3 63 63 NNE 3 6 30.09 1019 10 16 0.00 0.00
3:53 am 03:53 Clear 69 20.6 56 13.3 63 63 Calm 30.09 1019 10 16 0.00 0.00
4:53 am 04:53 Clear 67 19.4 56 13.3 68 68 NE 3 6 30.09 1019 10 16 0.00 0.00
5:53 am 05:53 Mostly Sunny 66 18.9 56 13.3 70 70 N 3 6 30.10 1019 10 16 0.00 0.00
6:53 am 06:53 Mostly Sunny 67 19.4 58 14.4 73 73 NNE 3 6 30.10 1019 10 16 0.00 0.00
7:53 am 07:53 Mostly Sunny 71 21.7 58 14.4 63 63 VRB 3 6 30.11 1020 10 16 0.00 0.00
8:53 am 08:53 Mostly Cloudy 73 22.8 62 16.7 69 69 Calm 30.11 1020 10 16 0.00 0.00
9:53 am 09:53 Mostly Cloudy 75 23.9 62 16.7 64 64 SSE 3 6 30.11 1020 10 16 0.00 0.00
10:53 am 10:53 Partly Cloudy 79 26.1 63 17.2 58 58 W 5 7 30.10 1019 10 16 0.00 0.00
11:53 am 11:53 Mostly Cloudy 80 26.7 63 17.2 56 56 Calm 30.09 1019 10 16 0.00 0.00
12:53 pm 12:53 Mostly Cloudy 81 27.2 59 15 47 47 S 5 7 30.06 1018 10 16 0.00 0.00
1:53 pm 13:53 Mostly Cloudy 81 27.2 61 16.1 51 51 WSW 7 11 30.06 1018 10 16 0.00 0.00
2:53 pm 14:53 Mostly Cloudy 82 27.8 61 16.1 49 49 NW 7 11 30.05 1018 10 16 0.00 0.00
3:53 pm 15:53 Partly Cloudy 83 28.3 62 16.7 49 49 WSW 9 15 30.03 1017 10 16 0.00 0.00
4:53 pm 16:53 Partly Cloudy 84 28.9 63 17.2 49 49 W 10 17 30.02 1017 10 16 0.00 0.00
5:53 pm 17:53 Mostly Sunny 84 28.9 63 17.2 49 49 WSW 8 13 30.01 1016 10 16 0.00 0.00
6:53 pm 18:53 Partly Cloudy 81 27.2 65 18.3 58 58 E 12 19 30.01 1016 10 16 0.00 0.00
7:53 pm 19:53 Mostly Sunny 82 27.8 61 16.1 49 49 SW 8 13 30.00 1016 10 16 0.00 0.00
8:53 pm 20:53 Mostly Sunny 81 27.2 60 15.6 49 49 WSW 5 7 29.99 1016 10 16 0.00 0.00
9:53 pm 21:53 Mostly Clear 78 25.6 63 17.2 60 60 SSE 5 7 30.00 1016 10 16 0.00 0.00
10:53 pm 22:53 Mostly Clear 75 23.9 66 18.9 74 74 SSE 7 11 30.01 1016 10 16 0.00 0.00
11:53 pm 23:53 Clear 75 23.9 66 18.9 74 74 S 9 15 30.01 1016 10 16 0.00 0.00

Powered by AerisWeather